Location: Unspecified
(0.0000°N, 0.0000°E)
Time: 01:27:16
(UTC+00:00)

Vanguard 1 Rocket - Pass Details

Date: 13 December 2017
Orbit: 653 x 4224 km, 34.3° (Epoch: 23 June)

Event Time Altitude Azimuth Distance (km) Brightness Sun altitude
Rises 20:20:17 0° 322° (NW) 6,234 11.8 -33.1°
Reaches altitude 10° 20:25:43 10° 337° (NNW) 5,798 11.4 -34.3°
Enters shadow 20:35:35 22° 9° (N) 5,674 11.0 -36.5°
Maximum altitude 20:40:00 23° 24° (NNE) 5,857 - -37.4°
Drops below altitude 10° 20:58:02 10° 69° (ENE) 7,427 - -41.3°
Sets 21:06:25 0° 82° (E) 8,346 - -43.1°
